This is the latest recevied weather packets stored in our database for station/object N0HOT. If no packets are shown the sender has not sent any weather packets the latest 10 day(s).
| Time | Temp. | Humidity | Pressure | Rain* | Wind** | Luminosity | Snow |
|---|---|---|---|---|---|---|---|
| 1777411098 | 15.56° C | 40% | 1013.2 hPa | 0 mm | - | 413 W/m² | - |
| 1777410798 | 15.56° C | 39% | 1013.2 hPa | 0 mm | - | 330 W/m² | - |
| 1777410496 | 15.56° C | 41% | 1013.2 hPa | 0 mm | - | 370 W/m² | - |
| 1777410196 | 15.56° C | 40% | 1013.2 hPa | 0 mm | - | 355 W/m² | - |
| 1777409892 | 15.56° C | 39% | 1013.6 hPa | 0 mm | - | 514 W/m² | - |
| 1777409588 | 15.56° C | 40% | 1013.6 hPa | 0 mm | - | 350 W/m² | - |
| 1777409282 | 15.56° C | 41% | 1013.6 hPa | 0 mm | - | 531 W/m² | - |
| 1777408979 | 15.56° C | 42% | 1013.9 hPa | 0 mm | - | 525 W/m² | - |
| 1777408676 | 15.56° C | 39% | 1013.9 hPa | 0 mm | - | 568 W/m² | - |
| 1777408371 | 15.56° C | 41% | 1013.9 hPa | 0 mm | - | 494 W/m² | - |
| 1777408071 | 15.56° C | 41% | 1013.9 hPa | 0 mm | - | 537 W/m² | - |
| 1777407767 | 15.56° C | 41% | 1013.9 hPa | 0 mm | - | 532 W/m² | - |
| 1777407463 | 15.56° C | 43% | 1013.9 hPa | 0 mm | - | 419 W/m² | - |
| 1777407158 | 15.56° C | 41% | 1013.9 hPa | 0 mm | - | 594 W/m² | - |
| 1777406853 | 15.56° C | 41% | 1014.3 hPa | 0 mm | - | 652 W/m² | - |
| 1777406549 | 15.56° C | 39% | 1013.9 hPa | 0 mm | - | 709 W/m² | - |
| 1777406244 | 15.56° C | 42% | 1014.3 hPa | 0 mm | - | 632 W/m² | - |
| 1777405944 | 15.56° C | 40% | 1013.9 hPa | 0 mm | - | 530 W/m² | - |
| 1777405640 | 15.56° C | 41% | 1013.9 hPa | 0 mm | - | 527 W/m² | - |
| 1777405338 | 15.56° C | 42% | 1014.3 hPa | 0 mm | - | 531 W/m² | - |
| 1777405033 | 15.56° C | 41% | 1014.3 hPa | 0 mm | - | 492 W/m² | - |
| 1777404728 | 15° C | 41% | 1014.3 hPa | 0 mm | - | 710 W/m² | - |
| 1777404424 | 15° C | 41% | 1014.3 hPa | 0 mm | - | 598 W/m² | - |
| 1777404121 | 14.44° C | 45% | 1013.9 hPa | 0 mm | - | 783 W/m² | - |
| 1777403816 | 13.89° C | 42% | 1013.9 hPa | 0 mm | - | 793 W/m² | - |
* Rain latest hour (hover to see other rain measurements)
** Current wind speed in m/s (hover to see current wind gust speed)